Regional Weather Roundup
Issued by NWS

Home | Current Version | Previous Version | Text Only | Print | Product List | Glossary On
Versions: 1 2 3 4 5 6 7 8 9 10 11 12 13 14 15 16 17 18 19 20 21 22 23 24 25 26 27 28 29 30 31 32 33 34 35 36 37 38 39 40 41 42 43 44 45 46 47 48 49 50
000
ASUS42 KTBW 271610
RWRFL
FLORIDA REGIONAL WEATHER ROUNDUP
NATIONAL WEATHER SERVICE TAMPA BAY RUSKIN FL
1100 AM EST FRI FEB 27 2015

NOTE: "FAIR" INDICATES FEW OR NO CLOUDS BELOW 12,000 FEET WITH NO
SIGNIFICANT WEATHER AND/OR OBSTRUCTIONS TO VISIBILITY.


FLZ001>010-012>015-112-114-115-271700-
PANHANDLE FLORIDA

CITY           SKY/WX    TMP DP  RH WIND       PRES   REMARKS
PENSACOLA      SUNNY     45  32  60 N9        30.38S WCI  40
PENSACOLA NAS  PTSUNNY   47  32  56 N13       30.37S WCI  41
MILTON NAS     MOSUNNY   47  31  53 VRB6      30.39S WCI  44
CRESTVIEW      SUNNY     47  31  53 N9        30.39S WCI  43
DUKE FIELD     PTSUNNY   46  30  52 N12       30.36R WCI  41
VALPARAISO     PTSUNNY   46  30  55 NE13      30.35S WCI  40
MARY ESTHER    MOSUNNY   46  27  47 N18       30.35S WCI  39
TRI COUNTY     FAIR      46  31  55 NE12      30.37F WCI  41
PANAMA CITY    FAIR      47  32  56 N14       30.35S WCI  41
TYNDALL AFB    PTSUNNY   48  34  58 N12       30.35R WCI  44
APALACHICOLA   PTSUNNY   51  37  58 N10       30.33R

STATION/POSITION SKY/WX   TEMP    WIND        PRES    WAVE   SWELL
                          AIR SEA DIR/SP/G            HT/PER HT/PER
                          (F)     (DEG/KT/KT) (MB)    (FT/S) (FT/S)
30.1N   87.6W              44 61   40/ 17/ 21 1027.4F   3/ 4
29.2N   88.2W              48 65   60/ 23/ 29 1027.3F   7/ 6
28.7N   86.0W              52 67   70/ 16/ 19 1026.7R   5/ 5   2/ 8
PANAMA CITY BEAC           45 54   30/  8/ 14 1027.6R
CAPE SAN BLAS    NOT AVBL
TOWER C                    47      40/ 18/ 19 1026.4R
28.5N   84.5W              54 65   60/ 17/ 21 1025.3R   5/ 6

$$
FLZ011-016>038-118-127-128-134-139-239-271700-
NORTH FLORIDA

CITY           SKY/WX    TMP DP  RH WIND       PRES   REMARKS
MARIANNA       MOSUNNY   47  34  60 VRB6      30.37R WCI  44
TALLAHASSEE    PTSUNNY   48  36  63 NE8       30.35R WCI  44
PERRY          CLOUDY    49  40  70 NE10      30.33F
CROSS CITY       N/A     53  40  61 NE15G21   30.31S
LAKE CITY      FAIR      46  39  76 NE10      30.33S WCI  41
GAINESVILLE    PTSUNNY   53  40  61 NE16G22   30.31R
MAYPORT NAS    CLOUDY    50  40  68 N16G24    30.32S WCI  44
JACKSONVILLE   CLOUDY    49  41  74 NE12      30.33R WCI  44
JAX NAS        CLOUDY    53  38  56 N14       30.33S
JAX CRAIG      CLOUDY    50  37  61 N15       30.32S WCI  45
JAX CECIL      PTSUNNY   50  39  66 N17       30.33S WCI  44
FERNANDINA BEA FAIR      54  41  62 N9G17     30.32S
ST AUGUSTINE   PTSUNNY   52  41  66 N20       30.32R

STATION/POSITION SKY/WX   TEMP    WIND        PRES    WAVE   SWELL
                          AIR SEA DIR/SP/G            HT/PER HT/PER
                          (F)     (DEG/KT/KT) (MB)    (FT/S) (FT/S)
SHELL POINT      NOT AVBL
KEATON BEACH               47      40/  8/ 15 1027.0R
CEDAR KEY                  53      40/ 11/ 16 1025.9S
FERNANDINA                 47 55   10/ 12/ 16 1026.4F
30.7N   81.3W                 53                N/A     4/ 5
MAYPORT                    48 56  360/ 17/ 21 1026.7R
31.4N   80.9W              46 52   30/ 16/ 19 1027.5R   4/ 5   2/11
ST AUGUSTINE               50     360/ 24/ 27 1026.4R

$$
FLZ040-043>046-052-053-057-058-063-144-271700-
INTERIOR CENTRAL FLORIDA

CITY           SKY/WX    TMP DP  RH WIND       PRES   REMARKS
OCALA          MOSUNNY   54  39  58 N10G16    30.29R
THE VILLAGES     N/A     54  45  71 N10       30.18R HAZE
LEESBURG       CLOUDY    55  44  66 NE10      30.28R
SANFORD        CLOUDY    55  45  68 N12G21    30.25R
ORLANDO EXEC   CLOUDY    57  47  69 N13       30.24R
ORLANDO INTL   CLOUDY    56  49  77 N14       30.24R
KISSIMMEE      CLOUDY    55  50  82 N10       30.24R
WINTER HAVEN   CLOUDY    55  47  74 N10       30.24R
LAKELAND       CLOUDY    54  46  76 N10       30.24R
BARTOW         CLOUDY    54  46  76 N12G17    30.24R
OKEECHOBEE     CLOUDY    59  54  82 N9        30.19S

$$
FLZ041-047-054-059-064-141-147-271700-
EAST CENTRAL FLORIDA

CITY           SKY/WX    TMP DP  RH WIND       PRES   REMARKS
ORMOND BEACH   CLOUDY    52  45  76 N12G20    30.27R
DAYTONA BEACH  CLOUDY    55  46  71 N14       30.26R
DELAND         CLOUDY   N/A N/A N/A N8G18     30.28R
NEW SMYRNA BEA CLOUDY    55  46  71 N13G30    30.26R
JFK SPACE CTR  CLOUDY    57  50  78 N16       30.22R
TITUSVILLE     CLOUDY    55  50  82 N194      30.23R
CAPE CANAVERAL PTSUNNY   59  53  80 N17       30.20R
PATRICK AFB    CLOUDY    59  55  88 N20G25    30.20R
MELBOURNE      CLOUDY    59  54  83 N18G24    30.20R
VERO BEACH     CLOUDY    61  56  83 N13       30.19R
FT PIERCE      CLOUDY    61  57  87 N8        30.17R
STUART         RAIN      63  59  88 N14       30.17R

STATION/POSITION SKY/WX   TEMP    WIND        PRES    WAVE   SWELL
                          AIR SEA DIR/SP/G            HT/PER HT/PER
                          (F)     (DEG/KT/KT) (MB)    (FT/S) (FT/S)
28.5N   80.2W              63 68  360/ 19/ 21 1021.9R
28.9N   78.5W              67 73   40/ 14/ 17 1022.1R   4/11   3/11
TRIDENT PIER     NOT AVBL
28.4N   80.5W                 63                N/A     3/11
27.6N   80.2W                 72                N/A     5/ 5

$$
FLZ050-056-061-142-242-148-248-149-249-151-251-155-255-
160-260-271700-
WEST CENTRAL FLORIDA

CITY           SKY/WX    TMP DP  RH WIND       PRES   REMARKS
CRYSTAL RIVER  FAIR      55  41  58 E10G17    30.28R
INVERNESS      FAIR      54  39  58 N10       30.29R
BROOKSVILLE    PTSUNNY   58  45  62 NE12      30.26S
ZEPHYRHILLS    CLOUDY    54  45  71 NE12      30.25S
CLEARWATER     CLOUDY    58  48  69 N8        30.23S
TAMPA INTL     CLOUDY    58  45  62 N10       30.24R
TAMPA EXEC     CLOUDY    59  46  63 N8        30.24F
PLANT CITY     CLOUDY   N/A N/A N/A NE8       30.25S
MACDILL AFB    CLOUDY    56  50  78 N10       30.23R
PETER O KNIGHT CLOUDY    59  48  67 N8        30.23F
ST PETERSBURG  CLOUDY    57  49  74 NE13      30.22R
SARASOTA       CLOUDY    57  49  74 NE10      30.21R
VENICE         PTSUNNY   63  52  67 N13       30.21S

STATION/POSITION SKY/WX   TEMP    WIND        PRES    WAVE   SWELL
                          AIR SEA DIR/SP/G            HT/PER HT/PER
                          (F)     (DEG/KT/KT) (MB)    (FT/S) (FT/S)
CEDAR KEY                  53      40/ 11/ 16 1025.9S
28.5N   84.5W              54 65   60/ 17/ 21 1025.3R   5/ 6
27.3N   84.3W                 69                N/A     5/ 6
CLEARWATER BEACH           56 61  360/ 13/ 16 1023.7F
MIDDLE TAMPA BAY           55      40/ 13/ 17 1024.0R
VENICE                     59 63   10/ 13/ 16 1022.4R

$$
FLZ066-069-070-075>078-162-262-165-265-271700-
SOUTHWEST FLORIDA AND KEYS

CITY           SKY/WX    TMP DP  RH WIND       PRES   REMARKS
PUNTA GORDA    CLOUDY    60  52  74 N14       30.21R
FT MYERS       CLOUDY    63  55  75 NE12      30.17R
SOUTHWEST INTL CLOUDY    63  55  75 N10       30.18R
NAPLES         CLOUDY    64  58  80 NE12      30.15R
MARCO ISLAND   PTSUNNY   64  57  77 NE12      30.15S
IMMOKALEE      CLOUDY   N/A N/A N/A N12       30.19R
MARATHON       PTSUNNY   74  69  85 NE10      30.12S
KEY WEST NAS   PTSUNNY   72  65  78 N9        30.13R
KEY WEST INTL  MOSUNNY   72  66  81 NE13      30.13R

STATION/POSITION SKY/WX   TEMP    WIND        PRES    WAVE   SWELL
                          AIR SEA DIR/SP/G            HT/PER HT/PER
                          (F)     (DEG/KT/KT) (MB)    (FT/S) (FT/S)
VENICE                     59 63   10/ 13/ 16 1022.4R
NAPLES                     63 67   60/  8/ 11 1020.8S
26.0N   85.6W              66 76   20/ 19/ 23 1022.0R   5/ 6   2/ 8
DRY TORTUGAS               65      40/ 18/ 20 1020.2R
SAND KEY                   69      40/ 11/ 13 1020.2R
SOMBRERO KEY               69      30/  9/ 10 1020.4R
LONG KEY                   71 75   20/  9/ 11 1020.6R
MOLASSES REEF              72 74  360/  9/  9 1019.8R

$$
FLZ067-068-071>074-168-172>174-271700-
SOUTHEAST FLORIDA

CITY           SKY/WX    TMP DP  RH WIND       PRES   REMARKS
W PALM BEACH   CLOUDY    67  64  90 N9        30.13S
FT LAUDER-EXEC PTSUNNY   70  65  84 NW7       30.14R
FT LAUDERDALE  CLOUDY    70  65  84 N8        30.13R
POMPANO BEACH  CLOUDY    70  64  81 NW8       30.14R
PEMBROKE PINES CLOUDY    71  64  78 N9        30.15S
OPA LOCKA      PTSUNNY   72  64  76 N8        30.14S
MIAMI          PTSUNNY   75  65  70 NW7       30.13S
WEST KENDALL   PTSUNNY   75  66  73 N7        30.13S
HOMESTEAD      PTSUNNY   75  66  73 N8        30.11F

STATION/POSITION SKY/WX   TEMP    WIND        PRES    WAVE   SWELL
                          AIR SEA DIR/SP/G            HT/PER HT/PER
                          (F)     (DEG/KT/KT) (MB)    (FT/S) (FT/S)
PORT EVERGLADES            70     350/  3/  6 1020.3
VIRGINIA KEY               73 73   10/  4/  7 1019.6S
LAKE WORTH                 66 73  350/ 13/ 15 1020.1R


USA.gov is the U.S. government's official web portal to all federal, state and local government web resources and services.